Aeroporto :
LOGIN :

Iscrizione | Disclaimer

   EN    FR    IT 

 










Sommario :    VFR   VFR Marginale   IFR   IFR Intensivo   IFR Molto Intensivo
Visibilità : 
Base nubi : 
>= 8 km
>= 3000ft
5 / 8 km
1000 / 3000 ft
1500m / 5 km
500 / 1000 ft
800 / 1500m
200 / 500 ft
< 800m
< 200 ft
Simboli :   Temporali  Nebbia  Neve Forte  Precipitazioni Forti  Vento > 20 kt
SIGMETs :   Varie  Temporali  Ghiacco  Turbolenza  Onda orograficha  Ceneri Vulcaniche







- Altitudine del aeroporto : 23 ft
- Codice IATA : XFW


EDHI - Hamburg Finkenwerder

ULTIMO METAR :
  • 171620Z 12004KT 040V170 3900 -DZ BR OVC009 03/02 Q1019

METARs OBSOLETI :
  • 171550Z 11004KT 070V160 5000 FEW009 OVC015 03/02 Q1019
  • 171520Z 13004KT 070V180 5000 OVC016 03/02 Q1019
  • 171450Z 12004KT 070V160 4300 BR FEW007 BKN015 OVC037 03/02 Q1018
  • 171420Z 12004KT 030V190 4000 BR OVC006 03/02 Q1018
  • 171350Z 11003KT 070V150 3700 BR SCT006 OVC035 03/02 Q1018
  • 171320Z 11005KT 070V140 3600 BR OVC005 03/02 Q1018

TAF TAF EDHI
Valido dal 17 a 15 ore il 17 a 21 ore UTC


171400Z 1715/1721 14004KT 3500 BR BKN005
TEMPO 1715/1719 6000 SCT005 BKN030
Nessun NOTAM noto per questo aeroporto.



MetMap, La meteo Aeronautica in un colpo d'occhio ! - Copyright ORBIFLY Dicembre 2007 - Disclaimer

ORBIFLY MET'MAP TEAM :

Programmazione e sviluppo : Alexandra Zaïnal
Concezione e sviluppo : Baudouin d'Aumeries
Co-Programmazione e sviluppo : Marc-Olivier Méhu
Supporto tecnico e logistico : Manuel Goepfert
Aiuto per la traduzione : Arnaldo La Scala

Contatto : metmap@orbifly.com




FONTI E CREDITI :

   NOAA